Regional Weather Roundup
Issued by NWS

Home | Current Version | Previous Version | Graphics & Text | Print | Product List | Glossary On
Versions: 1 2 3 4 5 6 7 8 9 10 11 12 13 14 15 16 17 18 19 20 21 22 23 24 25 26 27 28 29 30 31 32 33 34 35 36 37 38 39 40 41 42 43 44 45 46 47 48 49 50
000
ASUS43 KIND 041709
RWRIN

WEATHER ROUNDUP FOR INDIANA
NATIONAL WEATHER SERVICE INDIANAPOLIS IN
100 PM EDT SAT JUL 04 2015

NOTE: "FAIR" INDICATES FEW OR NO CLOUDS BELOW 12,000 FEET WITH NO
SIGNIFICANT WEATHER AND/OR OBSTRUCTIONS TO VISIBILITY.

* - STATION DOES NOT REPORT WEATHER SUCH AS PRECIPITATION OR FOG.

+ - STATION NOT QUALITY CONTROLLED BY THE NATIONAL WEATHER SERVICE.
    USE DATA WITH CAUTION...ESPECIALLY DEWPOINT AND RELATIVE
    HUMIDITY OBSERVATIONS.

INZ001>003-010>013-019-020-041800-
NORTHWEST INDIANA

CITY           SKY/WX    TMP DP  RH WIND       PRES   REMARKS
GARY /AIRPORT/ MOSUNNY  N/A N/A N/A VRB5      30.02S
KNOX *+        SUNNY     75  55  50 W5        30.02R
LA PORTE +     SUNNY     77  60  56 SW5       30.03S
MICHIGAN CITY+ SUNNY     75  55  50 NW7       30.03R
MONTICELLO +   SUNNY     74  59  58 CALM      30.02S
RENSSELAER +   SUNNY     75  59  57 S5        30.03S
VALPARAISO     MOSUNNY   76  60  57 VRB3      30.03S

$$

LMZ046-743>745-041800-
SOUTHERN LAKE MICHIGAN

STATION/POSITION TIME  TEMP    WIND        PRES    WAVE
                       AIR SEA DIR/SP/G            HT
                 (UTC) (F)     (DEG/KT/KT) (MB)    (FT)
BURNS HARBOR     1700   69     340/  3/  4 1017.3S
MICHIGAN CITY    1700   69     270/  5/  5   N/A
5NW MICH CITY    1700   69 66  280/  2/  4   N/A     0

$$

INZ004-005-014>016-021>024-041800-
NORTH CENTRAL INDIANA

CITY           SKY/WX    TMP DP  RH WIND       PRES   REMARKS
ELKHART        SUNNY     75  55  50 CALM      30.02F
GOSHEN         SUNNY     74  57  55 N6        30.02S
LOGANSPORT +   MOSUNNY   73  52  46 NW3       30.04R
PERU/GRISSOM   MOSUNNY   75  59  58 N6        30.02S
ROCHESTER +    MOSUNNY   77  59  53 N3        30.04R
SOUTH BEND     SUNNY     75  57  53 SW5       30.03R
WARSAW +         N/A     73  57  56 CALM      30.03S

$$

INZ006>009-017-018-025>027-041800-
NORTHEAST INDIANA

CITY           SKY/WX    TMP DP  RH WIND       PRES   REMARKS
ANGOLA *+        N/A     77  70  78 CALM      30.02S
AUBURN +       MOSUNNY   75  55  50 CALM      30.03R
FORT WAYNE     PTSUNNY   75  58  55 S5        30.03R
HUNTINGTON +   MOSUNNY   74  56  53 SW5       30.02S

$$

INZ028-029-035-036-043>045-051>053-041800-
WEST CENTRAL INDIANA

CITY           SKY/WX    TMP DP  RH WIND       PRES   REMARKS
CRAWFORDSVL +  SUNNY     74  55  51 CALM      30.04S
GREENCASTLE +  MOSUNNY   73  54  49 CALM      30.04S
LAFAYETTE      SUNNY     76  61  59 NW7       30.03R
TERRE HAUTE    SUNNY     77  61  57 CALM      30.03S

$$

INZ030>032-037>040-046>048-054>057-064-065-041800-
CENTRAL INDIANA

CITY           SKY/WX    TMP DP  RH WIND       PRES   REMARKS
CP ATTERBURY + CLOUDY    75  63  64 CALM      30.04R
COLUMBUS       PTSUNNY   75  59  57 CALM      30.03R
FISHERS *+     SUNNY     75  63  64 CALM      30.04R
FRANKFORT +    SUNNY     76  60  56 CALM      30.06R
GREENWOOD *+   MOSUNNY   77  59  53 S5        30.04R
INDIANAPOLIS   MOSUNNY   77  57  50 SE5       30.02R
-EAGLE CREEK   SUNNY     76  58  53 CALM      30.02S
KOKOMO *+      SUNNY     75  59  57 CALM      30.03R
MARION +       MOSUNNY   74  57  56 CALM      30.04S
MT COMFORT *+  SUNNY     77  48  36 CALM      30.04S
SHELBYVILLE    SUNNY     77  62  59 CALM      30.02S
ZIONSVILLE +   MOSUNNY   76  57  52 SE5       30.05R

$$

INZ033-034-041-042-049-050-058-059-041800-
EAST CENTRAL INDIANA

CITY           SKY/WX    TMP DP  RH WIND       PRES   REMARKS
MUNCIE         MOSUNNY   77  57  50 W5        30.03S

$$

INZ060-061-067>069-081>083-085>088-041800-
SOUTHWEST INDIANA

CITY           SKY/WX    TMP DP  RH WIND       PRES   REMARKS
EVANSVILLE     PTSUNNY   79  66  64 NE7       30.01S
HUNTINGBURG *+ MOSUNNY   79  66  65 E5        30.01F
WASHINGTON +   MOSUNNY   78  61  56 CALM      30.01F

$$

INZ062-063-066-070>080-084-089>092-041800-
SOUTH CENTRAL AND SOUTHEAST INDIANA

CITY           SKY/WX    TMP DP  RH WIND       PRES   REMARKS
BLOOMINGTON    MOSUNNY   78  63  59 CALM      30.03R
MADISON *+     SUNNY     79  61  53 CALM      30.05R
NORTH VERNON + MOSUNNY   79  63  57 CALM      30.03S
SEYMOUR +      MOSUNNY   79  64  61 CALM      30.02S

$$



USA.gov is the U.S. government's official web portal to all federal, state and local government web resources and services.